This is the latest recevied weather packets stored in our database for station/object DC7RY. If no packets are shown the sender has not sent any weather packets the latest 10 day(s).
| Time | Temp. | Humidity | Pressure | Rain* | Wind** | Luminosity | Snow |
|---|---|---|---|---|---|---|---|
| 1777749022 | 16.11° C | 63% | 1011.4 hPa | 0 mm | - | 0 W/m² | - |
| 1777748430 | 17.22° C | 61% | 1011.4 hPa | 0 mm | - | 0 W/m² | - |
| 1777747822 | 18.33° C | 58% | 1011.3 hPa | 0 mm | - | 0 W/m² | - |
| 1777747228 | 19.44° C | 54% | 1011.3 hPa | 0 mm | - | 0 W/m² | - |
| 1777746619 | 20.56° C | 50% | 1011.3 hPa | 0 mm | - | 4 W/m² | - |
| 1777746027 | 22.22° C | 47% | 1011.3 hPa | 0 mm | - | 12 W/m² | - |
| 1777745419 | 24.44° C | 46% | 1011.5 hPa | 0 mm | - | 24 W/m² | - |
| 1777744826 | 25.56° C | 38% | 1011.6 hPa | 0 mm | - | 47 W/m² | - |
| 1777744218 | 26.67° C | 33% | 1011.3 hPa | 0 mm | - | 87 W/m² | - |
| 1777743624 | 26.67° C | 32% | 1011.4 hPa | 0 mm | - | 117 W/m² | - |
| 1777743016 | 26.67° C | 31% | 1011.5 hPa | 0 mm | - | 136 W/m² | - |
| 1777742422 | 27.22° C | 29% | 1011.5 hPa | 0 mm | - | 127 W/m² | - |
| 1777741829 | 27.22° C | 29% | 1011.7 hPa | 0 mm | - | 139 W/m² | - |
| 1777741218 | 27.78° C | 28% | 1011.7 hPa | 0 mm | - | 155 W/m² | - |
| 1777740621 | 27.78° C | 28% | 1011.9 hPa | 0 mm | - | 163 W/m² | - |
| 1777740028 | 28.33° C | 27% | 1012.1 hPa | 0 mm | - | 175 W/m² | - |
| 1777739419 | 28.33° C | 27% | 1012.2 hPa | 0 mm | - | 172 W/m² | - |
| 1777738825 | 28.33° C | 25% | 1012.4 hPa | 0 mm | - | 211 W/m² | - |
| 1777738232 | 28.33° C | 27% | 1012.6 hPa | 0 mm | - | 231 W/m² | - |
| 1777737624 | 28.33° C | 26% | 1012.5 hPa | 0 mm | - | 233 W/m² | - |
| 1777737029 | 28.33° C | 26% | 1012.7 hPa | 0 mm | - | 266 W/m² | - |
| 1777736420 | 28.89° C | 26% | 1012.9 hPa | 0 mm | - | 259 W/m² | - |
| 1777735828 | 28.89° C | 24% | 1013.1 hPa | 0 mm | - | 285 W/m² | - |
| 1777735220 | 28.89° C | 27% | 1013.2 hPa | 0 mm | - | 329 W/m² | - |
| 1777734627 | 28.33° C | 24% | 1013.2 hPa | 0 mm | - | 355 W/m² | - |
* Rain latest hour (hover to see other rain measurements)
** Current wind speed in m/s (hover to see current wind gust speed)